This is the latest recevied weather packets stored in our database for station/object N0HEQ. If no packets are shown the sender has not sent any weather packets the latest 10 day(s).
| Time | Temp. | Humidity | Pressure | Rain* | Wind** | Luminosity | Snow |
|---|---|---|---|---|---|---|---|
| 1777588544 | 7.22° C | 64% | 1022.5 hPa | 0 mm | - | 74 W/m² | - |
| 1777588240 | 7.22° C | 64% | 1022.7 hPa | 0 mm | - | 79 W/m² | - |
| 1777587935 | 7.22° C | 66% | 1022.7 hPa | 0 mm | - | 103 W/m² | - |
| 1777587632 | 7.22° C | 65% | 1022.8 hPa | 0 mm | - | 98 W/m² | - |
| 1777587326 | 7.22° C | 65% | 1022.7 hPa | 0 mm | - | 106 W/m² | - |
| 1777587022 | 7.22° C | 66% | 1022.8 hPa | 0 mm | - | 130 W/m² | - |
| 1777586717 | 6.67° C | 67% | 1022.8 hPa | 0 mm | - | 137 W/m² | - |
| 1777586414 | 6.67° C | 66% | 1022.7 hPa | 0 mm | - | 100 W/m² | - |
| 1777586113 | 7.22° C | 67% | 1022.9 hPa | 0 mm | - | 80 W/m² | - |
| 1777585812 | 6.67° C | 67% | 1022.8 hPa | 0 mm | - | 110 W/m² | - |
| 1777585512 | 6.67° C | 68% | 1022.9 hPa | 0 mm | - | 122 W/m² | - |
| 1777585208 | 6.67° C | 68% | 1022.7 hPa | 0 mm | - | 92 W/m² | - |
| 1777584903 | 6.67° C | 66% | 1022.9 hPa | 0 mm | - | 99 W/m² | - |
| 1777584601 | 6.67° C | 66% | 1022.9 hPa | 0 mm | - | 101 W/m² | - |
| 1777584298 | 6.67° C | 66% | 1022.9 hPa | 0 mm | - | 86 W/m² | - |
| 1777583993 | 6.11° C | 67% | 1023.2 hPa | 0 mm | - | 86 W/m² | - |
| 1777583693 | 6.11° C | 67% | 1023.1 hPa | 0 mm | - | 71 W/m² | - |
| 1777583393 | 6.11° C | 67% | 1023.2 hPa | 0 mm | - | 50 W/m² | - |
| 1777583091 | 6.11° C | 68% | 1023.2 hPa | 0 mm | - | 49 W/m² | - |
| 1777582788 | 6.11° C | 67% | 1023.3 hPa | 0 mm | - | 45 W/m² | - |
| 1777582484 | 6.11° C | 67% | 1023.3 hPa | 0 mm | - | 46 W/m² | - |
| 1777582179 | 6.11° C | 68% | 1023.2 hPa | 0 mm | - | 46 W/m² | - |
| 1777581878 | 6.11° C | 68% | 1023.2 hPa | 0 mm | - | 51 W/m² | - |
| 1777581573 | 6.11° C | 70% | 1023.3 hPa | 0 mm | - | 67 W/m² | - |
| 1777581268 | 6.67° C | 67% | 1023.1 hPa | 0 mm | - | 73 W/m² | - |
* Rain latest hour (hover to see other rain measurements)
** Current wind speed in m/s (hover to see current wind gust speed)